Nassau, Bahamas

5:06 PM EDT on March 25, 2017 (GMT -0400)
Nassau International

Weather History for MYNN - April, 2013

Change the Weather History Date:

Friday, April 19, 2013

  Actual Average Record
Temperature  
Mean Temperature 82 °F -  
Max Temperature 88 °F 84 °F 88 °F (2013)
Min Temperature 75 °F 69 °F 59 °F (1997)
Cooling Degree Days 16    
Growing Degree Days 32 (Base 50)    
Moisture  
Dew Point 71 °F    
Average Humidity 70    
Maximum Humidity 78    
Minimum Humidity 56    
Precipitation  
Precipitation 0.00 in 0.12 in - ()
Sea Level Pressure  
Sea Level Pressure 30.06 in    
Wind  
Wind Speed 11 mph ()    
Max Wind Speed 18 mph    
Max Gust Speed -    
Visibility 6.9 miles    
Events      
Averages and records for this station are not official NWS values.
T = Trace of Precipitation, MM = Missing Value Source: Averaged Metar Reports

Daily Weather History Graph

Daily Weather History Graph

Search for Another Location

Airport or City:

Trip Planner

Search our weather history database for the weather conditions in past years. The results will help you decide how hot, cold, wet, or windy it might be!

Date:

Astronomy

Apr. 19, 2013 Rise Set
Actual Time 6:43 AM EDT 7:34 PM EDT
Civil Twilight 6:20 AM EDT 7:58 PM EDT
Nautical Twilight 5:52 AM EDT 8:25 PM EDT
Astronomical Twilight 5:24 AM EDT 8:54 PM EDT
Moon 1:53 PM EDT (4/19) 2:19 AM EDT (4/19)
Length of Visible Light 13h 37m
Length of Day
12h 50m
First Quarter, 61% of the Moon is Illuminated
Apr 19
First Quarter
Apr 25
Full
May 2
Last Quarter
May 9
New
May 18
First Quarter

Hourly Weather History & Observations

Time (EDT) Temp. Heat Index Dew Point Humidity Pressure Visibility Wind Dir Wind Speed Gust Speed Precip Events Conditions
12:00 AM 78.8 °F - 69.8 °F 74% 30.08 in 6.2 mi SE 11.5 mph - N/A   Scattered Clouds
1:00 AM 78.8 °F - 69.8 °F 74% 30.06 in 6.2 mi ESE 11.5 mph - N/A   Scattered Clouds
2:00 AM 78 °F - 70 °F 71% 30.05 in 9 mi ESE 11.5 mph - -   Scattered Clouds
2:00 AM 78.8 °F - 69.8 °F 74% 30.05 in 6.2 mi ESE 11.5 mph - N/A   Partly Cloudy
3:00 AM 78.8 °F - 69.8 °F 74% 30.04 in 6.2 mi ESE 11.5 mph - N/A   Partly Cloudy
4:00 AM 78.8 °F - 71.6 °F 78% 30.03 in 6.2 mi ESE 10.4 mph - N/A   Partly Cloudy
5:00 AM 78 °F - 70 °F 69% 30.02 in 9 mi ESE 9.2 mph - -   Scattered Clouds
5:00 AM 78.8 °F - 69.8 °F 74% 30.02 in 6.2 mi ESE 9.2 mph - N/A   Partly Cloudy
6:00 AM 78.8 °F - 69.8 °F 74% 30.03 in 6.2 mi SE 11.5 mph - N/A   Scattered Clouds
7:00 AM 78.8 °F - 69.8 °F 74% 30.06 in 6.2 mi ESE 11.5 mph - N/A   Scattered Clouds
8:00 AM 80 °F - 70 °F 65% 30.09 in 9 mi SE 13.8 mph - -   Scattered Clouds
8:00 AM 78.8 °F - 69.8 °F 74% 30.08 in 6.2 mi ESE 13.8 mph - N/A   Scattered Clouds
9:00 AM 80.6 °F 83.9 °F 69.8 °F 70% 30.10 in 6.2 mi SE 13.8 mph - N/A   Scattered Clouds
10:00 AM 80.6 °F 84.6 °F 71.6 °F 74% 30.10 in 6.2 mi SE 18.4 mph - N/A   Scattered Clouds
12:00 PM 82.4 °F 86.3 °F 69.8 °F 66% - 6.2 mi SE 16.1 mph - N/A   Scattered Clouds
1:00 PM 84.2 °F 88.4 °F 69.8 °F 62% 30.09 in 6.2 mi SE 13.8 mph - N/A   Scattered Clouds
2:00 PM 84 °F - 71 °F 56% 30.09 in 9 mi SE 11.5 mph - -   Partly Cloudy
2:00 PM 84.2 °F 88.4 °F 69.8 °F 62% 30.09 in 6.2 mi SE 11.5 mph - N/A   Scattered Clouds
3:00 PM 82.4 °F 86.3 °F 69.8 °F 66% 30.07 in 6.2 mi ESE 12.7 mph - N/A   Scattered Clouds
4:00 PM 82.4 °F 87.2 °F 71.6 °F 70% 30.05 in 6.2 mi SSE 15.0 mph - N/A   Mostly Cloudy
5:00 PM 84 °F - 71 °F 57% 30.04 in 9 mi SE 15.0 mph - -   Mostly Cloudy
5:00 PM 84.2 °F 89.6 °F 71.6 °F 66% 30.03 in 6.2 mi SE 15.0 mph - N/A   Mostly Cloudy
6:00 PM 82.4 °F 87.2 °F 71.6 °F 70% 30.03 in 6.2 mi ESE 13.8 mph - N/A   Mostly Cloudy
7:00 PM 80.6 °F 84.6 °F 71.6 °F 74% 30.02 in 6.2 mi SE 13.8 mph - N/A   Scattered Clouds
8:00 PM 81 °F - 71 °F 63% 30.03 in 9 mi SE 17.3 mph - -   Partly Cloudy
8:00 PM 80.6 °F 83.9 °F 69.8 °F 70% 30.02 in 6.2 mi SE 17.3 mph - N/A   Scattered Clouds
9:00 PM 78.8 °F - 71.6 °F 78% 30.05 in 6.2 mi ESE 12.7 mph - N/A   Scattered Clouds
10:00 PM 78.8 °F - 71.6 °F 78% 30.07 in 6.2 mi SE 11.5 mph - N/A   Scattered Clouds
11:00 PM 80 °F - 74 °F 77% 30.08 in 9 mi ESE 11.5 mph - -   Mostly Cloudy
11:50 PM 78.8 °F - 71.6 °F 78% 30.07 in 6.2 mi SE 12.7 mph - N/A   Mostly Cloudy